Trieste, Italy

2:51 AM CET on December 15, 2017 (GMT +0100)
Trieste

Weather History for LIVT - November, 2011

Change the Weather History Date:

Wednesday, November 30, 2011

  Actual Average Record
Temperature  
Mean Temperature 51 °F -  
Max Temperature 60 °F 47 °F 62 °F (2002)
Min Temperature 42 °F 40 °F 36 °F (2016)
Degree Days  
Heating Degree Days 14    
Growing Degree Days 1 (Base 50)    
Moisture  
Dew Point 43 °F    
Average Humidity 78    
Maximum Humidity 93    
Minimum Humidity 48    
Precipitation  
Precipitation 0.00 in 0.12 in - ()
Sea Level Pressure  
Sea Level Pressure 30.33 in    
Wind  
Wind Speed 2 mph ()    
Max Wind Speed 5 mph    
Max Gust Speed -    
Visibility 7.4 miles    
Events      
Averages and records for this station are not official NWS values.
T = Trace of Precipitation, MM = Missing Value Source: Averaged Metar Reports

Daily Weather History Graph

Daily Weather History Graph

Search for Another Location

Airport or City:

Trip Planner

Search our weather history database for the weather conditions in past years. The results will help you decide how hot, cold, wet, or windy it might be!

Date:

Astronomy

Nov. 30, 2011 Rise Set
Actual Time 7:23 AM CET 4:23 PM CET
Civil Twilight 6:49 AM CET 4:56 PM CET
Nautical Twilight 6:12 AM CET 5:33 PM CET
Astronomical Twilight 5:37 AM CET 6:09 PM CET
Moon 11:24 AM CET (11/30) 10:11 PM CET (11/30)
Length of Visible Light 10h 06m
Length of Day
8h 59m
Waxing Crescent, 31% of the Moon is Illuminated
Nov 30
Waxing Crescent
Dec 2
First Quarter
Dec 10
Full
Dec 18
Last Quarter
Dec 24
New

Hourly Weather History & Observations

Time (CET) Temp. Windchill Dew Point Humidity Pressure Visibility Wind Dir Wind Speed Gust Speed Precip Events Conditions
12:55 AM 44.6 °F 43.1 °F 39.2 °F 81% 30.27 in - NE 3.5 mph - N/A   Clear
1:00 AM 45 °F - 39 °F 73% 30.30 in 12 mi NE 3.5 mph - -  
1:55 AM 44.6 °F - 39.2 °F 81% 30.27 in - NE 2.3 mph - N/A   Clear
2:55 AM 42.8 °F - 41.0 °F 93% 30.27 in - NE 2.3 mph - N/A   Clear
3:55 AM 42.8 °F - 39.2 °F 87% 30.30 in - Calm Calm - N/A   Clear
4:55 AM 42.8 °F - 39.2 °F 87% 30.30 in - Calm Calm - N/A   Clear
6:55 AM 48.2 °F - 42.8 °F 82% 30.33 in 6.2 mi East 4.6 mph - N/A   Scattered Clouds
7:00 AM 49 °F - 43 °F 71% 30.34 in 12 mi East 4.6 mph - -   Partly Cloudy
7:55 AM 50.0 °F - 42.8 °F 76% 30.36 in 6.2 mi East 4.6 mph - N/A   Mostly Cloudy
8:55 AM 50.0 °F - 42.8 °F 76% 30.33 in 6.2 mi East 2.3 mph - N/A   Mostly Cloudy
10:55 AM 57.2 °F - 44.6 °F 63% 30.36 in 6.2 mi SE 2.3 mph - N/A   Partly Cloudy
11:55 AM 60.8 °F - 46.4 °F 59% 30.36 in 6.2 mi SSW 1.2 mph - N/A   Partly Cloudy
12:55 PM 59.0 °F - 44.6 °F 59% 30.33 in - WSW 1.2 mph - N/A   Clear
1:00 PM 60 °F - 45 °F 48% 30.36 in 6 mi WSW 1.2 mph - -  
1:55 PM 57.2 °F - 44.6 °F 63% 30.33 in - WNW 1.2 mph - N/A   Clear
3:55 PM 53.6 °F - 44.6 °F 72% 30.33 in - Calm Calm - N/A   Clear
4:55 PM 50.0 °F - 44.6 °F 82% 30.33 in - NE 4.6 mph - N/A   Clear
5:55 PM 48.2 °F - 44.6 °F 87% 30.36 in - NE 4.6 mph - N/A   Clear
6:55 PM 48.2 °F - 44.6 °F 87% 30.36 in - ENE 1.2 mph - N/A   Clear
7:00 PM 47 °F - 44 °F 86% 30.37 in 6 mi ENE 1.2 mph - -  
7:55 PM 46.4 °F - 42.8 °F 87% 30.36 in - ENE 2.3 mph - N/A   Clear
8:55 PM 46.4 °F 45.2 °F 42.8 °F 87% 30.36 in - ENE 3.5 mph - N/A   Clear
9:55 PM 46.4 °F - 42.8 °F 87% 30.36 in - Calm Calm - N/A   Clear
10:55 PM 44.6 °F - 41.0 °F 87% 30.36 in - Calm Calm - N/A   Clear
11:55 PM 42.8 °F 41.1 °F 39.2 °F 87% 30.36 in - NE 3.5 mph - N/A   Clear